Weather History for Haines, AK

Change the Weather History Date:

Tuesday, July 9, 2013

  Actual Average Record
Temperature  
Mean Temperature 53 °F -  
Max Temperature 55 °F 62 °F 81 °F (1976)
Min Temperature 51 °F 49 °F 42 °F (1978)
Degree Days  
Heating Degree Days 12    
Growing Degree Days 3 (Base 50)    
Moisture  
Dew Point 48 °F    
Average Humidity 82    
Maximum Humidity 88    
Minimum Humidity 75    
Precipitation  
Precipitation 0.00 in - - ()
Sea Level Pressure  
Sea Level Pressure 30.01 in    
Wind  
Wind Speed 10 mph (ESE)    
Max Wind Speed 16 mph    
Max Gust Speed 31 mph    
Visibility 10 miles    
Events      
Averages and records for this station are not official NWS values.
T = Trace of Precipitation, MM = Missing Value Source: NWS Daily Summary

Daily Weather History Graph

Daily Weather History Graph

Search for Another Location

Airport:

Trip Planner

Search our weather history database for the weather conditions in past years. The results will help you decide how hot, cold, wet, or windy it might be!

Date:

Astronomy

Jul. 09, 2013 Rise Set
Actual Time 4:03 AM AKDT 10:10 PM AKDT
Civil Twilight 2:45 AM AKDT 11:27 PM AKDT
Nautical Twilight Sun does not rise Sun does not rise
Astronomical Twilight Sun does not rise Sun does not rise
Moon 6:16 AM AKDT (7/9) 10:01 PM AKDT (7/9)
Length of Visible Light 20h 42m
Length of Day
18h 07m
New Moon, 2% of the Moon is Illuminated
Jul 9
New Moon
Jul 15
First Quarter
Jul 22
Full
Jul 29
Last Quarter
Aug 6
New

Hourly Weather History & Observations

Time (AKDT) Temp. Dew Point Humidity Pressure Visibility Wind Dir Wind Speed Gust Speed Precip Events Conditions
12:22 AM 53.6 °F 48.2 °F 82% 29.95 in 10.0 mi Variable 4.6 mph - N/A   Overcast
12:54 AM 54.0 °F 48.9 °F 83% 29.96 in 10.0 mi ESE 9.2 mph - N/A   Overcast
1:41 AM 53.6 °F 48.2 °F 82% 29.96 in 10.0 mi East 9.2 mph 20.7 mph N/A   Overcast
1:54 AM 54.0 °F 48.9 °F 83% 29.97 in 10.0 mi ESE 11.5 mph - N/A   Overcast
2:54 AM 53.1 °F 48.9 °F 86% 29.98 in 10.0 mi East 11.5 mph - N/A   Overcast
3:24 AM 53.6 °F 48.2 °F 82% 29.98 in 10.0 mi East 10.4 mph 16.1 mph N/A   Mostly Cloudy
3:54 AM 53.1 °F 48.9 °F 86% 29.99 in 10.0 mi ESE 9.2 mph 19.6 mph N/A   Mostly Cloudy
4:54 AM 52.0 °F 48.0 °F 86% 29.99 in 10.0 mi ESE 9.2 mph 18.4 mph N/A   Mostly Cloudy
5:11 AM 51.8 °F 48.2 °F 88% 29.99 in 10.0 mi ESE 10.4 mph 21.9 mph N/A   Overcast
5:23 AM 53.6 °F 48.2 °F 82% 29.99 in 10.0 mi ESE 10.4 mph 23.0 mph N/A   Overcast
5:54 AM 52.0 °F 48.0 °F 86% 30.01 in 10.0 mi East 13.8 mph 31.1 mph N/A   Overcast
6:16 AM 51.8 °F 48.2 °F 88% 30.00 in 10.0 mi East 9.2 mph 18.4 mph N/A   Overcast
6:36 AM 51.8 °F 48.2 °F 88% 30.01 in 10.0 mi ESE 8.1 mph 17.3 mph N/A   Overcast
6:43 AM 51.8 °F 48.2 °F 88% 30.01 in 10.0 mi ESE 9.2 mph - N/A   Overcast
6:54 AM 52.0 °F 48.0 °F 86% 30.01 in 10.0 mi ESE 9.2 mph 17.3 mph N/A   Overcast
7:54 AM 53.1 °F 48.0 °F 83% 30.02 in 10.0 mi East 9.2 mph 18.4 mph N/A   Overcast
8:08 AM 53.6 °F 48.2 °F 82% 30.01 in 10.0 mi ESE 10.4 mph - N/A   Overcast
8:54 AM 53.1 °F 48.9 °F 86% 30.03 in 10.0 mi East 13.8 mph 23.0 mph N/A   Mostly Cloudy
9:06 AM 53.6 °F 48.2 °F 82% 30.02 in 10.0 mi ESE 10.4 mph 21.9 mph N/A   Scattered Clouds
9:22 AM 53.6 °F 48.2 °F 82% 30.02 in 10.0 mi East 12.7 mph 21.9 mph N/A   Mostly Cloudy
9:35 AM 53.6 °F 48.2 °F 82% 30.02 in 10.0 mi ESE 11.5 mph 20.7 mph N/A   Overcast
9:46 AM 53.6 °F 48.2 °F 82% 30.02 in 10.0 mi ESE 16.1 mph 21.9 mph N/A   Overcast
9:54 AM 54.0 °F 48.0 °F 80% 30.03 in 10.0 mi East 11.5 mph 25.3 mph N/A   Overcast
10:54 AM 54.0 °F 48.0 °F 80% 30.03 in 10.0 mi ESE 11.5 mph 19.6 mph N/A   Mostly Cloudy
11:32 AM 53.6 °F 48.2 °F 82% 30.02 in 10.0 mi East 11.5 mph 23.0 mph N/A   Overcast
11:54 AM 54.0 °F 48.9 °F 83% 30.03 in 10.0 mi East 16.1 mph 26.5 mph N/A   Mostly Cloudy
12:42 PM 55.4 °F 48.2 °F 77% 30.03 in 10.0 mi ESE 12.7 mph 19.6 mph N/A   Mostly Cloudy
12:54 PM 54.0 °F 48.9 °F 83% 30.04 in 10.0 mi ESE 13.8 mph 24.2 mph N/A   Overcast
1:54 PM 55.0 °F 48.9 °F 80% 30.05 in 10.0 mi ESE 13.8 mph 21.9 mph N/A   Overcast
2:13 PM 53.6 °F 48.2 °F 82% 30.04 in 10.0 mi East 15.0 mph 21.9 mph N/A   Overcast
2:45 PM 53.6 °F 48.2 °F 82% 30.04 in 10.0 mi East 11.5 mph 19.6 mph N/A   Overcast
2:54 PM 54.0 °F 48.9 °F 83% 30.05 in 10.0 mi East 10.4 mph 17.3 mph N/A   Overcast
3:54 PM 55.9 °F 50.0 °F 80% 30.04 in 10.0 mi ESE 11.5 mph 21.9 mph N/A   Mostly Cloudy
4:08 PM 55.4 °F 48.2 °F 77% 30.03 in 10.0 mi ESE 15.0 mph 28.8 mph N/A   Overcast
4:54 PM 54.0 °F 48.0 °F 80% 30.04 in 10.0 mi East 11.5 mph 24.2 mph N/A   Overcast
5:54 PM 54.0 °F 48.0 °F 80% 30.04 in 10.0 mi East 13.8 mph 21.9 mph N/A   Overcast
6:54 PM 54.0 °F 46.9 °F 77% 30.03 in 10.0 mi ENE 8.1 mph 18.4 mph N/A   Overcast
7:54 PM 54.0 °F 46.9 °F 77% 30.02 in 10.0 mi East 8.1 mph 18.4 mph N/A   Overcast
8:54 PM 54.0 °F 46.0 °F 75% 30.02 in 10.0 mi Variable 6.9 mph - N/A   Overcast
9:46 PM 53.6 °F 46.4 °F 77% 30.02 in 10.0 mi East 5.8 mph - N/A   Overcast
9:54 PM 54.0 °F 46.0 °F 75% 30.03 in 10.0 mi East 5.8 mph - N/A   Overcast
10:54 PM 53.1 °F 46.9 °F 80% 30.02 in 10.0 mi East 6.9 mph - N/A   Overcast
11:54 PM 52.0 °F 48.0 °F 86% 30.02 in 10.0 mi ESE 4.6 mph - N/A   Overcast